[[{"header":{"parameterUnit":"m.s-1","parameterCategory":1,"la1":30.2991,"la2":30.254,"lo1":-89.0895,"lo2":-89.0444,"dy":0.0017,"dx":0.0017,"nx":28,"ny":28,"refTime":"2024-02-12T09:00:00:Z","depth":0,"parameterNumber":2,"parameterNumberName":"U-component_of_WINDS"},"data":[0,0,0,0,0,0,0,0,0,0,0,0,0,0,0,0,0,0,0,0,0,0,0,0,0,0,0,0,0,0,0,0,0,0,0,0,0,0,0,0,0,0,0,0,0,0,0,0,0,0,0,0,0,0,0,0,0,0,4.7084,4.7085,0,4.7221,4.7222,4.7224,4.721,4.7208,4.7206,4.7204,4.7344,4.7349,4.7355,0,0,0,0,0,0,0,0,0,0,0,0,0,4.6813,4.6818,4.7084,4.7086,4.7087,4.722,4.7222,4.7224,4.7211,4.7208,4.7206,4.7203,4.7342,4.7348,4.7355,0,0,0,0,0,0,0,0,0,0,0,0,0,4.6938,4.6819,4.7084,4.7097,4.7099,4.722,4.7222,4.7225,4.7211,4.7208,4.7205,4.7202,4.734,4.7348,4.7356,4.7472,0,0,4.7382,4.7386,0,0,0,0,0,0,0,0,4.6931,4.6948,4.7093,4.7096,4.7099,4.7195,4.7178,4.7308,4.7212,4.7169,4.7204,4.72,4.7297,4.7309,4.7341,4.7479,4.7485,4.7383,4.7388,4.7392,4.7394,0,0,0,0,0,0,0,4.6922,4.6942,4.7138,4.7095,4.7099,4.7096,4.7111,4.7202,4.7249,4.7172,4.7172,4.7188,4.7298,4.7333,4.7344,4.7487,4.7383,4.739,4.7396,4.7399,4.7729,4.7733,0,0,0,0,0,0,4.691,4.6935,4.7134,4.7142,4.7006,4.7104,4.712,4.7168,4.7248,4.7257,4.7191,4.7187,4.732,4.7334,4.7349,4.7492,4.7392,4.74,4.7405,4.7726,4.773,4.7734,0,0,0,0,0,0,4.6905,4.6928,4.7128,4.7038,4.7064,4.7112,4.7166,4.7172,4.7207,4.7262,4.727,4.7218,4.7318,4.7337,4.7443,4.7496,4.7404,4.7411,4.7721,4.7727,4.7732,4.7777,0,0,0,0,0,0,4.6897,4.6926,4.697,4.704,4.7068,4.7219,4.7169,4.7177,4.7222,4.7218,4.729,4.7298,4.7317,4.743,4.7451,4.7507,4.7418,4.7717,4.7724,4.773,4.7771,4.7783,4.7794,0,0,0,0,0,4.6887,4.6977,4.6973,4.6997,4.7125,4.7222,4.7238,4.7258,4.7226,4.7271,4.7307,4.7296,4.7487,4.7441,4.7464,4.7523,4.7713,4.7722,4.773,4.7766,4.7781,4.7794,0,0,0,0,0,0,4.6912,4.6986,4.6982,4.7097,4.7153,4.7219,4.7277,4.7273,4.734,4.7334,4.7355,4.7372,4.7478,4.7511,4.7458,4.7641,4.7596,4.761,4.7615,4.763,4.7642,4.7631,4.7425,0,0,0,0,0,4.6931,4.7004,4.7065,4.716,4.7189,4.7228,4.7271,4.7282,4.7341,4.7364,4.7407,4.7465,4.7539,4.7586,4.7657,4.7776,4.7792,4.7829,4.784,4.7849,4.7861,4.7928,4.7945,4.7761,4.7761,4.7761,0,0,4.6971,4.702,4.7065,4.7166,4.7211,4.7286,4.7248,4.7329,4.7385,4.7377,4.7479,4.7513,4.7579,4.7692,4.7744,4.7723,4.7915,4.786,4.7867,4.7873,4.7938,4.7956,4.7971,4.7767,4.7766,4.7765,0,0,4.7082,4.7126,4.7211,4.7257,4.7326,4.7352,4.7373,4.744,4.7463,4.7566,4.7562,4.763,4.7755,4.7803,4.7843,4.7976,4.7968,4.7998,4.8058,4.8123,4.8138,4.8151,4.8199,4.8216,4.8009,4.8009,4.8009,0,4.7122,4.7235,4.7255,4.7338,4.7383,4.738,4.7467,4.7511,4.7599,4.7631,4.7606,4.7765,4.7809,4.7935,4.7967,4.8,4.8025,4.7989,4.8134,4.8147,4.816,4.8206,4.8224,4.8012,4.8012,4.8012,4.8011,0,4.7282,4.736,4.7421,4.7507,4.756,4.7644,4.7678,4.7728,4.7735,4.7764,4.7871,4.7924,4.8006,4.8037,4.8044,4.8164,4.8149,4.8129,4.8084,4.818,4.8224,4.8241,4.8017,4.8016,4.8015,4.8014,0,0,4.741,4.7509,4.753,4.757,4.7647,4.7709,4.7794,4.7874,4.7918,4.798,4.8052,4.816,4.8143,4.8189,4.8202,4.8259,4.8362,4.8233,4.8234,4.8255,4.8499,4.8513,4.8533,4.8358,4.8361,4.8364,4.8494,0,4.7529,4.7679,4.7701,4.7834,4.7907,4.7907,4.7981,4.8037,4.8067,4.8134,4.8167,4.8244,4.8215,4.8243,4.83,4.8337,4.8411,4.8328,4.8426,4.8429,4.8409,4.8556,4.8571,4.869,4.8511,4.8514,4.8516,0,4.7687,4.7754,4.7894,4.7963,4.7995,4.8061,4.8138,4.8202,4.8266,4.8284,4.8337,4.8344,4.8433,4.8385,4.8508,4.8452,4.8493,4.8518,4.8523,4.8532,4.8478,4.857,4.8729,4.8747,4.8543,4.854,4.8538,0,4.7768,4.7893,4.7994,4.8028,4.811,4.8157,4.8194,4.8255,4.8302,4.837,4.8402,4.8478,4.852,4.858,4.8608,4.857,4.873,4.8684,4.8748,4.8747,4.8781,4.8778,4.8949,4.8808,4.8808,4.8807,4.8807,0,4.7898,4.7984,4.8031,4.8093,4.819,4.8215,4.831,4.8345,4.84,4.8469,4.8474,4.8539,4.8571,4.8642,4.8664,4.8763,4.8782,4.88,4.8805,4.8799,4.8797,4.8826,4.8819,4.8812,4.8811,4.881,4.8809,0,4.8004,4.8039,4.8148,4.8218,4.8238,4.8307,4.8367,4.8427,4.8458,4.8545,4.8568,4.8615,4.8699,4.8732,4.8834,4.8849,4.8964,4.8962,4.8942,4.8944,4.9006,4.9,4.9201,4.9229,4.9069,4.9071,4.9072,0,4.8084,4.8151,4.8228,4.8275,4.8314,4.8389,4.8438,4.8467,4.8518,4.8597,4.8648,4.8732,4.88,4.8933,4.8977,4.9055,4.9056,4.9121,4.9067,4.9061,4.9057,4.9053,4.906,4.9131,4.9132,4.9133,4.9135,0,4.8224,4.8239,4.831,4.8388,4.8447,4.8509,4.857,4.8608,4.8646,4.8704,4.8789,4.8842,4.8947,4.903,4.9111,4.915,4.9149,4.9151,4.917,4.9166,4.9152,4.9161,4.8969,4.9146,4.9145,4.9144,4.9144,4.9143,4.832,4.838,4.8444,4.8524,4.8573,4.863,4.8691,4.873,4.8802,4.8889,4.8902,4.8994,4.9058,4.9167,4.9209,4.9282,4.9265,4.9292,4.9299,4.9306,4.931,4.914,4.9297,4.9297,4.9296,4.9296,4.9296,0,4.8461,4.8503,4.8576,4.8661,4.8725,4.8719,4.8787,4.884,4.8921,4.8981,4.9049,4.9148,4.9229,4.928,4.9362,4.9411,4.9413,4.9431,4.9428,4.9437,4.932,4.9296,4.9429,4.9429,4.9429,4.9429,4.9429,4.9428,4.8541,4.8642,4.8665,4.8791,4.8832,4.8923,4.8962,4.9016,4.9064,4.9174,4.9242,4.9275,4.9333,4.9419,4.9494,4.9507,4.9537,4.9557,4.9569,4.9459,4.9445,4.9432,4.9409,4.9564,4.9564,4.968,4.9681,4.9682]},{"header":{"parameterUnit":"m.s-1","parameterCategory":1,"la1":30.2991,"la2":30.254,"lo1":-89.0895,"lo2":-89.0444,"dy":0.0017,"dx":0.0017,"nx":28,"ny":28,"refTime":"2024-02-12T09:00:00:Z","depth":0,"parameterNumber":3,"parameterNumberName":"V-component_of_WINDS"},"data":[0,0,0,0,0,0,0,0,0,0,0,0,0,0,0,0,0,0,0,0,0,0,0,0,0,0,0,0,0,0,0,0,0,0,0,0,0,0,0,0,0,0,0,0,0,0,0,0,0,0,0,0,0,0,0,0,0,0,-7.0032,-7.0034,0,-7.0194,-7.0196,-7.0198,-7.0164,-7.0161,-7.0158,-7.0155,-7.0318,-7.0324,-7.0331,0,0,0,0,0,0,0,0,0,0,0,0,0,-6.969,-6.9697,-7.0032,-7.0034,-7.0036,-7.0194,-7.0196,-7.0198,-7.0165,-7.0161,-7.0157,-7.0154,-7.0315,-7.0324,-7.0332,0,0,0,0,0,0,0,0,0,0,0,0,0,-6.9844,-6.9699,-7.0032,-7.0038,-7.0041,-7.0193,-7.0196,-7.0199,-7.0165,-7.0161,-7.0157,-7.0152,-7.0312,-7.0323,-7.0333,-7.0488,0,0,-7.0366,-7.037,0,0,0,0,0,0,0,0,-6.9835,-6.9857,-7.0035,-7.0038,-7.0041,-7.0154,-7.0135,-7.0296,-7.0167,-7.0118,-7.0155,-7.015,-7.0267,-7.0281,-7.0321,-7.0496,-7.0503,-7.0367,-7.0373,-7.0378,-7.0381,0,0,0,0,0,0,0,-6.9825,-6.985,-7.0096,-7.0038,-7.0041,-7.0032,-7.0049,-7.0165,-7.0215,-7.0122,-7.012,-7.014,-7.0267,-7.0311,-7.0324,-7.0505,-7.0366,-7.0376,-7.0382,-7.0387,-7.0816,-7.0821,0,0,0,0,0,0,-6.9812,-6.9841,-7.0091,-7.0101,-6.9925,-7.0042,-7.0061,-7.0122,-7.0214,-7.0224,-7.0143,-7.0138,-7.0295,-7.0312,-7.033,-7.0518,-7.0378,-7.0388,-7.0394,-7.0811,-7.0817,-7.0822,0,0,0,0,0,0,-6.9805,-6.9835,-7.0084,-6.9971,-7.0002,-7.0053,-7.0122,-7.0128,-7.0171,-7.023,-7.0239,-7.0179,-7.0292,-7.0315,-7.045,-7.0523,-7.0392,-7.0402,-7.0805,-7.0813,-7.082,-7.0894,0,0,0,0,0,0,-6.9795,-6.9832,-6.9892,-6.9972,-7.0008,-7.0202,-7.0127,-7.0134,-7.019,-7.0184,-7.0266,-7.0275,-7.029,-7.0434,-7.046,-7.0535,-7.041,-7.0799,-7.0808,-7.0817,-7.0885,-7.0903,-7.0919,0,0,0,0,0,-6.9783,-6.9906,-6.9896,-6.9926,-7.0084,-7.0207,-7.0227,-7.0243,-7.0196,-7.0257,-7.0295,-7.0272,-7.0511,-7.0448,-7.0477,-7.0556,-7.0794,-7.0806,-7.0817,-7.0878,-7.09,-7.0918,0,0,0,0,0,0,-6.9832,-6.9916,-6.9906,-7.0058,-7.0126,-7.0201,-7.0277,-7.0266,-7.0347,-7.0338,-7.0353,-7.0372,-7.0509,-7.0546,-7.0475,-7.0712,-7.0646,-7.0663,-7.0682,-7.0704,-7.072,-7.0708,-7.0419,0,0,0,0,0,-6.9861,-6.9954,-7.0023,-7.015,-7.0185,-7.0226,-7.0279,-7.0287,-7.0356,-7.0384,-7.0432,-7.05,-7.059,-7.0649,-7.0735,-7.0891,-7.0908,-7.096,-7.0976,-7.099,-7.1005,-7.109,-7.1114,-7.086,-7.0859,-7.0859,0,0,-6.992,-6.9978,-7.0036,-7.0162,-7.0215,-7.031,-7.025,-7.0353,-7.0424,-7.0399,-7.053,-7.0567,-7.0644,-7.079,-7.0857,-7.0825,-7.1079,-7.1004,-7.1015,-7.1022,-7.1104,-7.1128,-7.115,-7.0867,-7.0866,-7.0865,0,0,-7.0078,-7.0132,-7.0244,-7.0299,-7.0381,-7.0407,-7.0434,-7.0512,-7.0536,-7.0668,-7.0652,-7.0736,-7.0891,-7.0946,-7.0994,-7.1175,-7.1157,-7.1203,-7.1289,-7.1372,-7.1392,-7.141,-7.1474,-7.1497,-7.1217,-7.1218,-7.1218,0,-7.0142,-7.0286,-7.0303,-7.0409,-7.0465,-7.0449,-7.0563,-7.0615,-7.072,-7.0758,-7.0722,-7.0917,-7.0967,-7.1126,-7.1171,-7.121,-7.1241,-7.1193,-7.1388,-7.1406,-7.1423,-7.1484,-7.1509,-7.1222,-7.1222,-7.1221,-7.1221,0,-7.0361,-7.0461,-7.0542,-7.0646,-7.0711,-7.082,-7.0853,-7.0916,-7.0918,-7.0948,-7.1082,-7.1142,-7.1241,-7.1279,-7.1281,-7.1439,-7.1417,-7.1384,-7.1318,-7.1452,-7.151,-7.1534,-7.123,-7.1228,-7.1226,-7.1225,0,0,-7.0552,-7.0665,-7.0695,-7.0742,-7.0832,-7.0909,-7.1018,-7.1115,-7.1169,-7.1243,-7.1334,-7.1466,-7.1437,-7.1492,-7.15,-7.1574,-7.1713,-7.1532,-7.1534,-7.1563,-7.189,-7.1913,-7.194,-7.1702,-7.1706,-7.171,-7.1883,0,-7.0718,-7.0911,-7.093,-7.1102,-7.1195,-7.1182,-7.1276,-7.1341,-7.1372,-7.1455,-7.1489,-7.1582,-7.1537,-7.1571,-7.1642,-7.168,-7.1778,-7.1668,-7.1785,-7.1789,-7.1766,-7.197,-7.1995,-7.2156,-7.1906,-7.191,-7.1913,0,-7.0937,-7.1019,-7.1201,-7.1278,-7.1318,-7.1403,-7.1494,-7.1574,-7.1647,-7.1664,-7.1727,-7.1726,-7.1836,-7.1767,-7.192,-7.1845,-7.1894,-7.192,-7.1926,-7.1937,-7.1859,-7.1986,-7.2208,-7.2232,-7.1949,-7.1946,-7.1943,0,-7.1059,-7.1214,-7.1343,-7.1384,-7.1477,-7.1537,-7.1579,-7.1648,-7.1706,-7.1785,-7.1823,-7.1914,-7.1964,-7.2034,-7.2057,-7.2004,-7.2209,-7.2141,-7.2225,-7.2225,-7.2268,-7.2265,-7.25,-7.2301,-7.2301,-7.23,-7.23,0,-7.1242,-7.1353,-7.1399,-7.1478,-7.1603,-7.1624,-7.1746,-7.1784,-7.1846,-7.1932,-7.1926,-7.2006,-7.2032,-7.2117,-7.2136,-7.2259,-7.2282,-7.2298,-7.2302,-7.2299,-7.2297,-7.233,-7.232,-7.2307,-7.2305,-7.2304,-7.2303,0,-7.1398,-7.1433,-7.1573,-7.1651,-7.1673,-7.1762,-7.1828,-7.1904,-7.1934,-7.2043,-7.207,-7.2117,-7.2217,-7.2247,-7.2367,-7.2379,-7.2524,-7.2517,-7.25,-7.25,-7.2582,-7.2574,-7.2847,-7.2884,-7.2661,-7.2663,-7.2665,0,-7.1512,-7.1598,-7.1686,-7.1744,-7.1788,-7.1881,-7.1941,-7.1964,-7.2026,-7.2117,-7.2182,-7.2281,-7.2361,-7.2521,-7.2565,-7.2656,-7.2652,-7.2741,-7.2665,-7.266,-7.2653,-7.2647,-7.2656,-7.2755,-7.2757,-7.2759,-7.2761,0,-7.1711,-7.1725,-7.1811,-7.1905,-7.1977,-7.2051,-7.2122,-7.217,-7.2203,-7.2273,-7.2376,-7.2438,-7.2561,-7.2659,-7.2753,-7.2794,-7.2783,-7.2785,-7.2809,-7.2806,-7.2792,-7.2801,-7.2538,-7.2778,-7.2776,-7.2775,-7.2774,-7.2773,-7.185,-7.1926,-7.2,-7.2097,-7.2153,-7.2221,-7.2296,-7.2337,-7.2423,-7.2526,-7.2535,-7.2646,-7.2717,-7.2841,-7.2887,-7.2974,-7.2948,-7.2983,-7.2992,-7.3,-7.3007,-7.278,-7.2991,-7.299,-7.299,-7.299,-7.2989,0,-7.2048,-7.2096,-7.2185,-7.2286,-7.2362,-7.2347,-7.2426,-7.249,-7.2588,-7.2656,-7.2736,-7.2854,-7.2949,-7.3002,-7.3097,-7.3156,-7.3153,-7.318,-7.3175,-7.3185,-7.3025,-7.2994,-7.318,-7.318,-7.318,-7.318,-7.318,-7.318,-7.2161,-7.2288,-7.2311,-7.2467,-7.2513,-7.2622,-7.2669,-7.273,-7.2785,-7.2917,-7.2997,-7.3031,-7.3093,-7.3193,-7.3279,-7.3292,-7.3327,-7.3357,-7.3367,-7.3216,-7.3196,-7.3177,-7.3149,-7.3364,-7.3365,-7.352,-7.3521,-7.3522]}]]